PEGASUS (42784 NORAD) Tracking and Keplerian Element Data

This shows tracking and keplerian element data for the satellite.

Feedback or suggestion? Click here.




ElementValue
Catalog42784
NamePEGASUS
Epoch Orbit7732
Epoch Day318.16223512
Epoch Year2018
RAAN15.3592
Inclination97.3832
Eccentricity0.0010569
Argument of Perigee270.6925
Mean Anonmoly89.31
Mean Motion15.22005568
Decay Rate1.132E-05
L11 42784U 17036V 18318.16223512 .00001132 00000-0 52563-4 0 9997
L22 42784 97.3832 15.3592 0010569 270.6925 89.3100 15.22005568 77320

Live tracking and technical data element details for PEGASUS (NORAD 42784). PEGASUS can be tracked NOW for your location showing map with azimuth and elevation plus other details from your city location.

Track the satellite on the map from your city or location and see movement details for azimuth, elevation, latitude, longitude, range, height, and movement on the map or in text.







IsCatalogInMostPopularTable: catalog: 42784, numindb: 127
Update: records affected: 1



GetName: 42784 PEGASUS

Hit Count: updated at: Fri, 16 Nov 2018 05:02:43 GMT